User: anonymous   Login
Location: Wojciech Piskorz
(50.3083°N, 18.6764°E)
Time: 20:00:37
(UTC+02:00)
Language:

ISS - Orbit

View from above orbital plane
View from above orbital plane
View from above satellite
View from above satellite

Ground track
Ground track

The orbit data is extracted from the following two-line orbital elements,

1 25544U 98067A   22278.50664374  .00029692  00000-0  53062-3 0  9993
2 25544  51.6412 150.0266 0002910 259.5903 172.3733 15.49765110362293
Epoch (UTC): 05 October 2022 12:09:34
Eccentricity: 0.0002910
inclination: 51.6412°
perigee height: 415 km
apogee height: 419 km
right ascension of ascending node: 150.0266°
argument of perigee: 259.5903°
revolutions per day: 15.49765110
mean anomaly at epoch: 172.3733°
orbit number at epoch: 36229

The dashed part of the orbit path shows where the satellite is in the earth's shadow,  

DLR